ASK1Y FACT-OERK

Flight info

Callsign ASK1Y
Flight time N/A
Altitude 31000
Route KODES1A KODES UZ30 IMKIV UT916 VLS UR779 GEPET/N0498F330 UR779 MB UP312 LOSIN UM441 LOTAS/N0493F340 UM308 RUDOL/N0491F330 M308 OKNET/N0487F350 M308 GWZ UM308 RANSO M308 KONET G650 RASKA/N0482F360 T513 EGMEG/N0482F350 G660 JDW B417 PATOR T532 DAW J852 ORDEM
Aircraft MD11/H-SDE1E2E3FGHIJ2J3J4J5M1RWXY/LB1D1

Departure

Time 2026-05-04 10:34
Airport Cape Town International Airport (FACT)

Arrival

Time N/A
Airport King Khalid International Airport (OERK)
Time Latitude Longitude Altitude Speed Heading
2026-05-04 09:57 -33.97533 18.60034 162 ft 0 kts 245°
2026-05-04 10:23 -33.97531 18.60039 161 ft 3 kts 245°
2026-05-04 10:23 -33.97523 18.60059 161 ft 4 kts 245°
2026-05-04 10:25 -33.97469 18.60073 161 ft 0 kts 163°
2026-05-04 10:27 -33.97480 18.60078 161 ft 6 kts 161°
2026-05-04 10:28 -33.97541 18.60110 161 ft 12 kts 156°
2026-05-04 10:28 -33.97616 18.60149 161 ft 11 kts 157°
2026-05-04 10:28 -33.97685 18.60180 161 ft 10 kts 160°
2026-05-04 10:28 -33.97747 18.60206 161 ft 9 kts 161°
2026-05-04 10:29 -33.97806 18.60231 161 ft 11 kts 161°
2026-05-04 10:29 -33.97902 18.60271 162 ft 17 kts 161°
2026-05-04 10:29 -33.98019 18.60322 162 ft 18 kts 160°
2026-05-04 10:29 -33.98128 18.60368 162 ft 16 kts 160°
2026-05-04 10:30 -33.98228 18.60411 162 ft 15 kts 160°
2026-05-04 10:30 -33.98320 18.60451 162 ft 13 kts 160°
2026-05-04 10:30 -33.98405 18.60488 162 ft 13 kts 160°
2026-05-04 10:30 -33.98507 18.60532 162 ft 19 kts 160°
2026-05-04 10:31 -33.98648 18.60593 161 ft 24 kts 160°
2026-05-04 10:31 -33.98790 18.60662 161 ft 17 kts 137°
2026-05-04 10:32 -33.98648 18.60848 161 ft 13 kts 344°
2026-05-04 10:33 -33.98314 18.60742 161 ft 85 kts 346°
2026-05-04 10:33 -33.97536 18.60496 159 ft 144 kts 345°
2026-05-04 10:33 -33.96433 18.60155 206 ft 177 kts 348°
2026-05-04 10:33 -33.95236 18.59709 579 ft 184 kts 340°
2026-05-04 10:34 -33.94056 18.59110 1143 ft 184 kts 335°
2026-05-04 10:34 -33.92848 18.58605 1711 ft 185 kts 340°
2026-05-04 10:34 -33.91616 18.58125 2158 ft 188 kts 340°
2026-05-04 10:34 -33.90361 18.57643 2574 ft 192 kts 339°
2026-05-04 10:35 -33.89024 18.57156 2925 ft 205 kts 339°
2026-05-04 10:35 -33.87649 18.56613 3324 ft 215 kts 328°
2026-05-04 10:35 -33.86478 18.55408 3475 ft 231 kts 307°
2026-05-04 10:35 -33.85402 18.53868 3625 ft 251 kts 313°
2026-05-04 10:36 -33.83844 18.52758 3762 ft 277 kts 344°
2026-05-04 10:36 -33.81853 18.52815 4001 ft 299 kts 14°
2026-05-04 10:36 -33.79944 18.53892 4622 ft 307 kts 29°
2026-05-04 10:36 -33.78168 18.55353 5276 ft 312 kts 33°
2026-05-04 10:37 -33.76445 18.56946 5983 ft 314 kts 34°
2026-05-04 10:37 -33.74730 18.58602 6665 ft 317 kts 35°
2026-05-04 10:37 -33.73023 18.60281 7367 ft 318 kts 34°
2026-05-04 10:37 -33.71303 18.61984 7866 ft 325 kts 34°
2026-05-04 10:39 -33.60056 18.70296 10737 ft 329 kts
2026-05-04 10:39 -33.57772 18.70563 11283 ft 331 kts 359°
2026-05-04 10:39 -33.55469 18.70793 11794 ft 334 kts 359°
2026-05-04 10:40 -33.53140 18.71030 12351 ft 337 kts 359°
2026-05-04 10:40 -33.50789 18.71282 12861 ft 341 kts 359°
2026-05-04 10:40 -33.48418 18.71547 13395 ft 344 kts 359°
2026-05-04 10:40 -33.46023 18.71823 13891 ft 347 kts 359°
2026-05-04 10:41 -33.43646 18.72102 14396 ft 348 kts 359°
2026-05-04 10:41 -33.41234 18.72389 14938 ft 348 kts 359°
2026-05-04 10:41 -33.38789 18.72681 15473 ft 348 kts 358°
2026-05-04 10:41 -33.36409 18.72966 16040 ft 348 kts 358°
2026-05-04 10:42 -33.33964 18.73257 16574 ft 348 kts 358°
2026-05-04 10:42 -33.31549 18.73545 17103 ft 349 kts 358°
2026-05-04 10:42 -33.29134 18.73833 17628 ft 349 kts 357°
2026-05-04 10:42 -33.26713 18.74121 18087 ft 351 kts 357°
2026-05-04 10:43 -33.24308 18.74406 18519 ft 352 kts 357°
2026-05-04 10:44 -33.08026 18.78720 21005 ft 387 kts 15°
2026-05-04 10:46 -33.07088 18.79265 21146 ft 388 kts 15°
2026-05-04 10:46 -33.04663 18.80683 21594 ft 389 kts 15°
2026-05-04 10:46 -33.02226 18.82097 22028 ft 391 kts 14°
2026-05-04 10:47 -32.99770 18.83504 22423 ft 392 kts 15°
2026-05-04 10:47 -32.97298 18.84903 22791 ft 395 kts 14°
2026-05-04 10:47 -32.94806 18.86304 23175 ft 396 kts 14°
2026-05-04 10:47 -32.92308 18.87704 23547 ft 398 kts 14°
2026-05-04 10:49 -32.74546 18.97598 25597 ft 408 kts 14°
2026-05-04 10:49 -32.71964 18.99032 25777 ft 411 kts 14°
2026-05-04 10:50 -32.69370 19.00471 26079 ft 412 kts 14°
2026-05-04 10:51 -32.50969 19.10661 27849 ft 423 kts 14°
2026-05-04 10:52 -32.48300 19.12137 28091 ft 423 kts 14°
2026-05-04 10:52 -32.45618 19.13616 28260 ft 427 kts 14°
2026-05-04 10:52 -32.42927 19.15100 28480 ft 428 kts 14°
2026-05-04 10:54 -32.23856 19.25565 30025 ft 436 kts 14°
2026-05-04 10:54 -32.21103 19.27069 30236 ft 436 kts 13°
2026-05-04 10:56 -32.01717 19.37621 31018 ft 441 kts 13°
2026-05-04 10:56 -31.98940 19.39134 31017 ft 440 kts 13°
2026-05-04 10:57 -31.93374 19.42154 31025 ft 441 kts 13°
2026-05-04 10:57 -31.87845 19.45150 31017 ft 440 kts 13°
2026-05-04 10:58 -31.82274 19.48164 31017 ft 441 kts 14°
2026-05-04 10:58 -31.76705 19.51173 31025 ft 441 kts 14°
2026-05-04 10:59 -31.71095 19.54201 31029 ft 441 kts 14°
2026-05-04 10:59 -31.65562 19.57183 31029 ft 441 kts 14°
2026-05-04 11:00 -31.59987 19.60184 30985 ft 441 kts 14°
2026-05-04 11:02 -31.37555 19.72195 31029 ft 444 kts 14°
2026-05-04 11:05 -30.95128 19.94779 31017 ft 449 kts 14°
2026-05-04 11:06 -30.89441 19.97791 31014 ft 449 kts 14°
2026-05-04 11:06 -30.83755 20.00798 31013 ft 449 kts 14°
2026-05-04 11:10 -30.44885 20.21238 30984 ft 448 kts 15°
2026-05-04 11:12 -30.22162 20.33174 31021 ft 448 kts 15°
2026-05-04 11:12 -30.16480 20.36148 30995 ft 448 kts 15°
2026-05-04 11:13 -30.10786 20.39125 31015 ft 449 kts 15°
2026-05-04 11:13 -30.05092 20.42099 31028 ft 449 kts 15°
2026-05-04 11:14 -29.99398 20.45069 31018 ft 449 kts 14°
2026-05-04 11:16 -29.76613 20.56913 31017 ft 450 kts 14°
2026-05-04 11:16 -29.70905 20.59860 31018 ft 449 kts 14°
2026-05-04 11:17 -29.65202 20.62806 31018 ft 450 kts 14°
2026-05-04 11:19 -29.42375 20.74585 31027 ft 449 kts 14°
2026-05-04 11:19 -29.36674 20.77518 31025 ft 449 kts 14°
2026-05-04 11:20 -29.30985 20.80441 31028 ft 449 kts 14°
2026-05-04 11:20 -29.25290 20.83363 31033 ft 450 kts 14°
2026-05-04 11:22 -29.02392 20.95077 31042 ft 451 kts 14°
2026-05-04 11:23 -28.96660 20.97991 31028 ft 450 kts 14°
2026-05-04 11:25 -28.76624 21.08171 31044 ft 451 kts 14°
2026-05-04 11:25 -28.70891 21.11080 31046 ft 451 kts 14°
2026-05-04 11:27 -28.45062 21.24137 31049 ft 451 kts 14°
2026-05-04 11:28 -28.39341 21.27099 31048 ft 456 kts 19°
2026-05-04 11:28 -28.36648 21.29105 31036 ft 470 kts 29°
2026-05-04 11:28 -28.34158 21.31568 31047 ft 479 kts 34°
2026-05-04 11:29 -28.29420 21.36961 31046 ft 483 kts 36°
2026-05-04 11:29 -28.24682 21.42363 31041 ft 482 kts 35°
2026-05-04 11:33 -27.90844 21.79083 31033 ft 482 kts 34°
2026-05-04 11:33 -27.85985 21.84320 31044 ft 484 kts 34°
2026-05-04 11:34 -27.81109 21.89568 31042 ft 484 kts 34°
2026-05-04 11:34 -27.76235 21.94803 31056 ft 483 kts 34°
2026-05-04 11:35 -27.71350 22.00026 31032 ft 484 kts 34°
2026-05-04 11:35 -27.66466 22.05251 31055 ft 486 kts 34°
2026-05-04 11:36 -27.61570 22.10494 31067 ft 485 kts 34°
2026-05-04 11:36 -27.56679 22.15727 31059 ft 485 kts 34°
2026-05-04 11:37 -27.51707 22.20745 31078 ft 476 kts 26°
2026-05-04 11:37 -27.46030 22.24273 31081 ft 462 kts 16°
2026-05-04 11:38 -27.40171 22.27211 31078 ft 461 kts 15°
2026-05-04 11:38 -27.34315 22.30211 31073 ft 465 kts 16°
2026-05-04 11:39 -27.28448 22.33316 31086 ft 466 kts 17°
2026-05-04 11:41 -27.07961 22.44253 31054 ft 466 kts 17°
2026-05-04 11:41 -27.02079 22.47379 31072 ft 469 kts 17°
2026-05-04 11:42 -26.96165 22.50519 31074 ft 471 kts 17°
2026-05-04 11:42 -26.90248 22.53662 31075 ft 470 kts 17°
2026-05-04 11:43 -26.84333 22.56797 31067 ft 470 kts 17°
2026-05-04 11:43 -26.78421 22.59927 31075 ft 470 kts 17°
2026-05-04 11:44 -26.72483 22.63058 31067 ft 473 kts 17°
2026-05-04 11:44 -26.66521 22.66197 31065 ft 473 kts 17°
2026-05-04 11:45 -26.60570 22.69335 31060 ft 473 kts 17°
2026-05-04 11:45 -26.54615 22.72474 31067 ft 473 kts 17°
2026-05-04 11:46 -26.48657 22.75609 31058 ft 474 kts 17°
2026-05-04 11:46 -26.42698 22.78742 31036 ft 473 kts 17°
2026-05-04 11:47 -26.36731 22.81874 31042 ft 475 kts 17°
2026-05-04 11:47 -26.30756 22.85008 31048 ft 474 kts 17°
2026-05-04 11:48 -26.24784 22.88138 31042 ft 474 kts 17°
2026-05-04 11:48 -26.18808 22.91265 31042 ft 474 kts 17°
2026-05-04 11:49 -26.12830 22.94389 31032 ft 475 kts 17°
2026-05-04 11:49 -26.06839 22.97516 31037 ft 476 kts 17°
2026-05-04 11:50 -26.00845 23.00642 31023 ft 476 kts 17°
2026-05-04 11:50 -25.94865 23.03747 31023 ft 476 kts 17°
2026-05-04 11:51 -25.88865 23.06862 31018 ft 476 kts 17°
2026-05-04 11:51 -25.83876 23.09453 30990 ft 476 kts 17°
2026-05-04 11:52 -25.77841 23.12584 31017 ft 482 kts 17°
2026-05-04 11:52 -25.71751 23.15742 31018 ft 483 kts 17°
2026-05-04 11:53 -25.65671 23.18895 31011 ft 482 kts 17°
2026-05-04 11:53 -25.59591 23.22043 31010 ft 482 kts 17°
2026-05-04 11:55 -25.35202 23.34627 30996 ft 486 kts 17°
2026-05-04 11:56 -25.29083 23.37777 30995 ft 486 kts 18°
2026-05-04 11:56 -25.23026 23.41155 30993 ft 489 kts 20°
2026-05-04 11:57 -25.17029 23.44733 30986 ft 492 kts 21°
2026-05-04 11:57 -25.10992 23.48314 30988 ft 491 kts 18°
2026-05-04 11:58 -25.04766 23.51250 31003 ft 484 kts 13°
2026-05-04 11:58 -24.98455 23.53839 31003 ft 483 kts 13°
2026-05-04 11:59 -24.92150 23.56430 30997 ft 484 kts 13°
2026-05-04 11:59 -24.85851 23.59064 31002 ft 485 kts 13°
2026-05-04 12:00 -24.79566 23.61797 31002 ft 486 kts 15°
2026-05-04 12:00 -24.73307 23.64638 31012 ft 487 kts 15°
2026-05-04 12:01 -24.67050 23.67488 31012 ft 487 kts 15°
2026-05-04 12:02 -24.45099 23.77405 31014 ft 489 kts 15°
2026-05-04 12:03 -24.38797 23.80206 31015 ft 488 kts 15°
2026-05-04 12:03 -24.32476 23.82934 31015 ft 488 kts 14°
2026-05-04 12:04 -24.26152 23.85649 31004 ft 489 kts 15°
2026-05-04 12:04 -24.19809 23.88376 31018 ft 490 kts 15°
2026-05-04 12:05 -24.13462 23.91130 31018 ft 490 kts 15°
2026-05-04 12:05 -24.07135 23.93885 31018 ft 490 kts 15°
2026-05-04 12:06 -24.00784 23.96603 31018 ft 489 kts 14°
2026-05-04 12:06 -23.94422 23.99258 31012 ft 490 kts 15°
2026-05-04 12:07 -23.88058 24.01975 31018 ft 492 kts 15°
2026-05-04 12:07 -23.81695 24.04731 31018 ft 492 kts 15°
2026-05-04 12:08 -23.75338 24.07468 31009 ft 491 kts 15°
2026-05-04 12:08 -23.68966 24.10181 31015 ft 492 kts 15°
2026-05-04 12:09 -23.62635 24.12871 31005 ft 492 kts 15°
2026-05-04 12:09 -23.56239 24.15580 31023 ft 493 kts 15°
2026-05-04 12:10 -23.49844 24.18275 31017 ft 493 kts 15°
2026-05-04 12:10 -23.43447 24.20967 31000 ft 493 kts 15°
2026-05-04 12:11 -23.37050 24.23658 31007 ft 493 kts 15°
2026-05-04 12:11 -23.30652 24.26346 31011 ft 493 kts 15°
2026-05-04 12:12 -23.24252 24.29033 30996 ft 493 kts 15°
2026-05-04 12:12 -23.17852 24.31717 31008 ft 493 kts 15°
2026-05-04 12:14 -22.92185 24.42453 30992 ft 496 kts 15°
2026-05-04 12:15 -22.85745 24.45141 31001 ft 496 kts 15°
2026-05-04 12:15 -22.79300 24.47824 30995 ft 496 kts 15°
2026-05-04 12:16 -22.72860 24.50507 30990 ft 496 kts 15°
2026-05-04 12:16 -22.66421 24.53225 30998 ft 497 kts 16°
2026-05-04 12:17 -22.59970 24.55956 31002 ft 497 kts 16°
2026-05-04 12:17 -22.53525 24.58682 31002 ft 497 kts 16°
2026-05-04 12:18 -22.47082 24.61402 30992 ft 497 kts 16°
2026-05-04 12:18 -22.40672 24.64100 31001 ft 497 kts 16°
2026-05-04 12:19 -22.34197 24.66752 30997 ft 498 kts 15°
2026-05-04 12:19 -22.27699 24.69376 30999 ft 499 kts 15°
2026-05-04 12:20 -22.21204 24.72001 30998 ft 499 kts 15°
2026-05-04 12:20 -22.14714 24.74626 30999 ft 499 kts 15°
2026-05-04 12:21 -22.08213 24.77254 31004 ft 499 kts 15°
2026-05-04 12:21 -22.01720 24.79876 31003 ft 500 kts 15°
2026-05-04 12:22 -21.95209 24.82503 31004 ft 499 kts 15°
2026-05-04 12:22 -21.88708 24.85157 31004 ft 500 kts 16°
2026-05-04 12:23 -21.82226 24.87879 31007 ft 500 kts 17°
2026-05-04 12:23 -21.75742 24.90615 31006 ft 500 kts 17°
2026-05-04 12:24 -21.69259 24.93342 31000 ft 501 kts 17°
2026-05-04 12:24 -21.62763 24.96069 31005 ft 501 kts 17°
2026-05-04 12:25 -21.56268 24.98794 31006 ft 501 kts 17°
2026-05-04 12:25 -21.49778 25.01523 31003 ft 501 kts 17°
2026-05-04 12:26 -21.43289 25.04253 31000 ft 501 kts 17°
2026-05-04 12:26 -21.36791 25.06983 30999 ft 502 kts 17°
2026-05-04 12:27 -21.30300 25.09696 31010 ft 501 kts 17°
2026-05-04 12:27 -21.23786 25.12360 31003 ft 501 kts 17°
2026-05-04 12:28 -21.17286 25.15003 31008 ft 501 kts 17°
2026-05-04 12:28 -21.10766 25.17655 30999 ft 501 kts 17°
2026-05-04 12:29 -21.04249 25.20306 31012 ft 502 kts 17°
2026-05-04 12:29 -20.97725 25.22992 31015 ft 502 kts 17°
2026-05-04 12:30 -20.91220 25.25735 31016 ft 502 kts 18°
2026-05-04 12:30 -20.84762 25.28466 31018 ft 502 kts 18°
2026-05-04 12:31 -20.78260 25.31209 31012 ft 502 kts 18°
2026-05-04 12:31 -20.71753 25.33947 31014 ft 503 kts 18°
2026-05-04 12:32 -20.61989 25.38051 31014 ft 503 kts 18°
2026-05-04 12:33 -20.55497 25.40825 31011 ft 504 kts 21°
2026-05-04 12:33 -20.49229 25.44220 31009 ft 506 kts 26°
2026-05-04 12:34 -20.43085 25.47913 31001 ft 507 kts 26°
2026-05-04 12:34 -20.36939 25.51588 31003 ft 506 kts 26°
2026-05-04 12:35 -20.30774 25.55217 31004 ft 506 kts 26°
2026-05-04 12:35 -20.24602 25.58828 31004 ft 507 kts 26°
2026-05-04 12:36 -20.18423 25.62440 30999 ft 507 kts 26°
2026-05-04 12:36 -20.12239 25.66055 31001 ft 507 kts 26°
2026-05-04 12:37 -20.06059 25.69664 31002 ft 507 kts 26°
2026-05-04 12:37 -19.99877 25.73271 31003 ft 507 kts 26°
2026-05-04 12:38 -19.94738 25.76267 31003 ft 507 kts 26°
2026-05-04 12:38 -19.88494 25.79726 31003 ft 505 kts 23°
2026-05-04 12:39 -19.82136 25.82904 31002 ft 505 kts 22°
2026-05-04 12:39 -19.75767 25.86038 30977 ft 504 kts 22°
2026-05-04 12:40 -19.69407 25.89194 30980 ft 504 kts 22°
2026-05-04 12:40 -19.63058 25.92359 30974 ft 504 kts 22°
2026-05-04 12:41 -19.56710 25.95523 30974 ft 504 kts 22°
2026-05-04 12:41 -19.50357 25.98686 30977 ft 504 kts 22°
2026-05-04 12:42 -19.44012 26.01841 30976 ft 504 kts 22°
2026-05-04 12:42 -19.37668 26.04993 30979 ft 503 kts 22°
2026-05-04 12:43 -19.31320 26.08135 30976 ft 503 kts 22°
2026-05-04 12:43 -19.24925 26.11139 30979 ft 503 kts 21°
2026-05-04 12:44 -19.18504 26.14074 30991 ft 503 kts 21°
2026-05-04 12:44 -19.12082 26.17011 30989 ft 503 kts 21°
2026-05-04 12:45 -19.05667 26.19955 30991 ft 503 kts 21°
2026-05-04 12:45 -18.99248 26.22902 30992 ft 503 kts 21°
2026-05-04 12:46 -18.92831 26.25846 30997 ft 503 kts 21°
2026-05-04 12:46 -18.86455 26.28768 30992 ft 503 kts 21°
2026-05-04 12:47 -18.80034 26.31708 30990 ft 503 kts 21°
2026-05-04 12:47 -18.73605 26.34649 30990 ft 504 kts 21°
2026-05-04 12:48 -18.67177 26.37588 30992 ft 503 kts 21°
2026-05-04 12:48 -18.60749 26.40523 30988 ft 503 kts 21°
2026-05-04 12:49 -18.54321 26.43456 31086 ft 501 kts 21°
2026-05-04 12:49 -18.51141 26.44905 31533 ft 497 kts 21°
2026-05-04 12:49 -18.47975 26.46345 31842 ft 495 kts 21°
2026-05-04 12:49 -18.44822 26.47779 32130 ft 493 kts 21°
2026-05-04 12:50 -18.41676 26.49211 32416 ft 492 kts 21°
2026-05-04 12:50 -18.38536 26.50640 32696 ft 490 kts 21°
2026-05-04 12:50 -18.35412 26.52061 32963 ft 489 kts 21°
2026-05-04 12:50 -18.32302 26.53476 33217 ft 488 kts 21°
2026-05-04 12:51 -18.29186 26.54894 33453 ft 487 kts 21°
2026-05-04 12:51 -18.26083 26.56304 33696 ft 486 kts 21°
2026-05-04 12:51 -18.22978 26.57715 33907 ft 486 kts 21°
2026-05-04 12:51 -18.19877 26.59123 34084 ft 485 kts 21°
2026-05-04 12:52 -18.16782 26.60529 34245 ft 485 kts 21°
2026-05-04 12:52 -18.13688 26.61933 34379 ft 485 kts 21°
2026-05-04 12:52 -18.10586 26.63340 34509 ft 485 kts 21°
2026-05-04 12:52 -18.07492 26.64744 34643 ft 485 kts 21°
2026-05-04 12:53 -18.04398 26.66147 34841 ft 483 kts 21°
2026-05-04 12:53 -17.98237 26.69000 34956 ft 487 kts 24°
2026-05-04 12:54 -17.92371 26.72582 34968 ft 488 kts 30°
2026-05-04 12:54 -17.86695 26.76468 34973 ft 487 kts 31°
2026-05-04 12:55 -17.81007 26.80338 34972 ft 487 kts 30°
2026-05-04 12:55 -17.75299 26.84161 34980 ft 487 kts 30°
2026-05-04 12:56 -17.69581 26.87965 34978 ft 487 kts 30°
2026-05-04 12:56 -17.63856 26.91770 34989 ft 487 kts 30°
2026-05-04 12:57 -17.58124 26.95580 34987 ft 488 kts 30°
2026-05-04 12:57 -17.52434 26.99359 34991 ft 487 kts 30°
2026-05-04 12:58 -17.46708 27.03160 34981 ft 487 kts 30°
2026-05-04 12:58 -17.40982 27.06958 34988 ft 486 kts 30°
2026-05-04 12:59 -17.35264 27.10748 34998 ft 487 kts 30°